Weather History for Gage, OK

Change the Weather History Date:

Saturday, November 17, 2012

  Actual Average Record
Temperature  
Mean Temperature 55 °F -  
Max Temperature 66 °F 61 °F 80 °F (1999)
Min Temperature 44 °F 31 °F 7 °F (1959)
Degree Days  
Heating Degree Days 10    
Growing Degree Days 5 (Base 50)    
Moisture  
Dew Point 33 °F    
Average Humidity 47    
Maximum Humidity 56    
Minimum Humidity 37    
Precipitation  
Precipitation 0.00 in - - ()
Sea Level Pressure  
Sea Level Pressure 30.19 in    
Wind  
Wind Speed 20 mph (South)    
Max Wind Speed 26 mph    
Max Gust Speed 34 mph    
Visibility 10 miles    
Events      
Averages and records for this station are not official NWS values.
T = Trace of Precipitation, MM = Missing Value Source: NWS Daily Summary

Daily Weather History Graph

Daily Weather History Graph

Search for Another Location

Airport:

Trip Planner

Search our weather history database for the weather conditions in past years. The results will help you decide how hot, cold, wet, or windy it might be!

Date:

Astronomy

Nov. 17, 2012 Rise Set
Actual Time 7:18 AM CST 5:29 PM CST
Civil Twilight 6:51 AM CST 5:56 PM CST
Nautical Twilight 6:20 AM CST 6:28 PM CST
Astronomical Twilight 5:49 AM CST 6:58 PM CST
Moon 11:04 AM CST (11/17) 9:40 PM CST (11/17)
Length of Visible Light 11h 05m
Length of Day
10h 10m
Waxing Crescent, 20% of the Moon is Illuminated
Nov 17
Waxing Crescent
Nov 20
First Quarter
Nov 28
Full
Dec 6
Last Quarter
Dec 13
New

Hourly Weather History & Observations

Time (CST) Temp. Windchill Dew Point Humidity Pressure Visibility Wind Dir Wind Speed Gust Speed Precip Events Conditions
12:53 AM 46.9 °F - 30.0 °F 52% 30.26 in 10.0 mi South 18.4 mph - N/A   Clear
1:53 AM 45.0 °F 37.1 °F 30.0 °F 56% 30.25 in 10.0 mi South 19.6 mph - N/A   Clear
2:53 AM 45.0 °F 36.6 °F 28.9 °F 53% 30.23 in 10.0 mi South 21.9 mph 28.8 mph N/A   Clear
3:53 AM 45.0 °F 36.9 °F 28.9 °F 53% 30.23 in 10.0 mi South 20.7 mph 27.6 mph N/A   Clear
4:53 AM 45.0 °F 37.1 °F 28.0 °F 52% 30.24 in 10.0 mi South 19.6 mph - N/A   Clear
5:53 AM 44.1 °F 35.7 °F 28.0 °F 53% 30.24 in 10.0 mi South 20.7 mph - N/A   Clear
6:53 AM 44.1 °F 36.5 °F 27.0 °F 51% 30.25 in 10.0 mi South 17.3 mph - N/A   Clear
7:53 AM 45.0 °F 37.1 °F 27.0 °F 49% 30.26 in 10.0 mi South 19.6 mph - N/A   Clear
8:53 AM 50.0 °F - 27.0 °F 41% 30.25 in 10.0 mi South 24.2 mph 29.9 mph N/A   Clear
9:53 AM 54.0 °F - 28.9 °F 38% 30.25 in 10.0 mi South 24.2 mph 31.1 mph N/A   Clear
11:53 AM 62.1 °F - 37.9 °F 41% 30.20 in 10.0 mi South 21.9 mph 33.4 mph N/A   Clear
12:53 PM 63.0 °F - 37.9 °F 40% 30.16 in 10.0 mi South 23.0 mph 32.2 mph N/A   Clear
1:53 PM 64.9 °F - 39.0 °F 39% 30.14 in 10.0 mi South 26.5 mph 34.5 mph N/A   Clear
2:53 PM 66.0 °F - 39.0 °F 37% 30.13 in 10.0 mi South 25.3 mph 33.4 mph N/A   Clear
3:53 PM 64.0 °F - 39.9 °F 41% 30.12 in 10.0 mi South 21.9 mph 29.9 mph N/A   Clear
4:53 PM 63.0 °F - 41.0 °F 45% 30.12 in 10.0 mi South 21.9 mph 27.6 mph N/A   Clear
5:53 PM 59.0 °F - 39.9 °F 49% 30.13 in 10.0 mi South 15.0 mph - N/A   Clear
6:53 PM 57.0 °F - 37.9 °F 49% 30.14 in 10.0 mi South 16.1 mph - N/A   Clear
7:53 PM 55.0 °F - 37.0 °F 51% 30.15 in 10.0 mi South 15.0 mph - N/A   Clear
8:53 PM 53.1 °F - 35.1 °F 50% 30.15 in 10.0 mi South 15.0 mph - N/A   Clear
9:53 PM 53.1 °F - 33.1 °F 47% 30.14 in 10.0 mi South 18.4 mph - N/A   Clear
10:53 PM 52.0 °F - 30.9 °F 45% 30.14 in 10.0 mi South 17.3 mph - N/A   Clear
11:53 PM 50.0 °F - 28.0 °F 43% 30.12 in 10.0 mi South 17.3 mph - N/A   Clear